This demonstration page uses our WeatherBlox Daily Observations layout. Learn more.

Left ArrowRight Arrow

Hourly Observations for May 26, 2017

Temp ( °F °C ) Dew Point ( °F °C ) Humidity (%) Winds ( mph kmh ) Pressure ( in mb ) Visibility ( mi km ) Precip ( " mm )
12:52 am 00:52 Clear 67 19.4 57 13.9 71 71 SSE 13 20 29.67 1005 10 16 0.00 0.00
1:52 am 01:52 Clear 67 19.4 57 13.9 71 71 SSE 14 22 29.67 1005 10 16 0.00 0.00
2:52 am 02:52 Clear 68 20 57 13.9 68 68 ESE 14 22 29.68 1005 10 16 0.00 0.00
3:52 am 03:52 Clear 68 20 58 14.4 70 70 ESE 16 26 29.66 1005 10 16 0.00 0.00
4:52 am 04:52 Clear with Light Rain 68 20 59 15 73 73 SSE 10 17 29.68 1005 10 16 0.00 0.03
5:52 am 05:52 Clear 67 19.4 59 15 76 76 SE 14 22 29.68 1005 10 16 0.00 0.03
6:52 am 06:52 Sunny 67 19.4 60 15.6 79 79 SE 15 24 29.70 1006 10 16 0.00 0.00
7:52 am 07:52 Sunny 68 20 61 16.1 78 78 SE 21 33 29.70 1006 10 16 0.00 0.00
8:52 am 08:52 Sunny 71 21.7 63 17.2 76 76 SSE 16 26 29.70 1006 10 16 0.00 0.00
9:52 am 09:52 Sunny 74 23.3 64 17.8 71 71 SSE 16 26 29.70 1006 10 16 0.00 0.00
10:52 am 10:52 Sunny 76 24.4 64 17.8 67 67 S 16 26 29.70 1006 10 16 0.00 0.00
11:52 am 11:52 Cloudy 77 25 66 18.9 69 69 SSW 15 24 29.72 1006 10 16 0.00 0.00
12:52 pm 12:52 Cloudy 76 24.4 66 18.9 72 72 SSW 10 17 29.73 1007 10 16 0.00 0.00
1:22 pm 13:22 Cloudy 77 25 66 18.9 69 69 S 9 15 29.71 1006 10 16 0.00 0.00
1:52 pm 13:52 Cloudy 77 25 66 18.9 69 69 SSW 7 11 29.73 1007 10 16 0.00 0.00
2:52 pm 14:52 Cloudy 78 25.6 67 19.4 69 69 SW 7 11 29.73 1007 10 16 0.00 0.00
3:52 pm 15:52 Cloudy 80 26.7 68 20 67 67 W 7 11 29.73 1007 10 16 0.00 0.00
4:52 pm 16:52 Mostly Cloudy 81 27.2 68 20 65 65 WSW 8 13 29.73 1007 10 16 0.00 0.00
5:52 pm 17:52 Mostly Cloudy 82 27.8 69 20.6 65 65 W 5 7 29.75 1007 10 16 0.00 0.00
6:52 pm 18:52 Cloudy 81 27.2 69 20.6 67 67 W 5 7 29.75 1008 10 16 0.00 0.00
7:52 pm 19:52 Mostly Cloudy 80 26.7 70 21.1 71 71 Calm 29.77 1008 10 16 0.00 0.00
8:52 pm 20:52 Mostly Cloudy 78 25.6 70 21.1 76 76 NE 6 9 29.78 1008 10 16 0.00 0.00
9:52 pm 21:52 Mostly Cloudy 76 24.4 70 21.1 82 82 ENE 7 11 29.80 1009 10 16 0.00 0.00
10:52 pm 22:52 Mostly Cloudy 75 23.9 70 21.1 84 84 E 8 13 29.81 1010 10 16 0.00 0.00
11:52 pm 23:52 Mostly Cloudy 74 23.3 69 20.6 85 85 ESE 6 9 29.81 1010 10 16 0.00 0.00

Powered by AerisWeather